Theta_e
316 316 316 316 317 317 317 318 318 319 319 318 317 317 318 318 317 309 300 309 313 330 329 314 307 305 302 298 299 300 292 287 290 292 296 300 300 305 308 304 307 308 308 310 320
315 315 315 316 316 317 317 317 318 318 318 318 318 318 318 318 307 303 319 330 332 330 309 306 305 305 300 298 297 294 288 290 297 298 296 300 300 302 303 303 304 306 310 322 342
315 315 315 315 316 316 316 316 317 318 318 318 319 318 318 315 300 303 329 332 331 325 313 309 306 302 296 296 297 293 289 294 298 299 300 299 299 302 300 299 302 303 307 312 345
314 314 314 315 315 316 316 316 317 318 317 317 320 318 317 309 290 303 333 334 330 317 311 307 300 296 294 293 296 291 298 298 297 301 299 298 301 301 302 300 305 306 307 307 332
314 314 314 314 314 315 315 316 316 317 316 317 320 319 308 295 295 305 336 331 320 313 308 301 296 295 292 294 295 293 296 298 300 299 299 301 300 300 301 304 306 307 306 305 310
313 313 313 313 314 315 316 316 316 316 316 317 321 319 303 293 303 305 317 318 315 307 300 298 294 297 294 294 293 297 297 298 298 298 296 297 298 299 302 304 305 305 304 303 305
313 313 312 313 314 315 316 315 315 315 316 318 321 316 300 295 303 303 302 299 301 302 298 299 298 295 294 293 298 297 293 295 296 296 295 298 295 296 301 304 302 303 304 305 305
313 312 312 313 313 314 315 315 315 318 318 319 320 312 294 303 303 304 302 302 304 302 300 301 298 294 294 295 293 291 289 284 292 294 295 295 288 298 302 300 300 302 303 305 305
313 312 312 312 313 314 314 314 317 320 320 320 311 305 292 309 303 303 300 301 302 303 302 305 296 291 292 286 283 284 281 283 286 292 293 293 290 297 300 298 298 300 301 303 304
313 312 312 312 312 313 312 314 316 317 316 316 312 297 298 298 303 304 303 304 300 299 297 295 290 287 285 283 278 281 281 283 284 289 291 289 291 295 297 296 297 298 300 302 303
313 312 311 312 312 312 308 298 297 297 299 296 299 300 301 304 305 301 303 301 299 295 288 290 285 282 285 286 287 286 284 283 287 290 288 289 290 292 293 293 295 297 298 299 302
312 312 312 311 312 312 302 295 298 299 294 302 302 303 306 302 297 300 302 295 294 288 289 286 282 288 291 290 288 287 284 283 286 290 289 288 287 290 291 293 295 296 297 299 300
311 311 311 311 310 303 299 299 301 302 292 300 305 299 299 298 296 298 300 296 291 289 288 284 288 293 291 289 287 285 284 284 285 289 289 286 284 286 291 293 294 296 298 299 299
311 310 310 309 302 298 296 299 303 304 288 295 298 297 298 297 296 303 303 297 293 288 289 286 291 291 289 288 289 283 289 289 288 284 280 286 278 286 289 290 291 293 292 296 300
310 310 309 309 297 297 299 300 301 302 278 293 293 299 297 296 298 300 304 299 291 291 290 287 288 288 287 288 290 286 292 289 288 285 281 284 278 281 286 286 289 290 302 303 304
310 309 309 304 298 301 303 298 303 286 279 291 293 292 292 297 298 300 298 299 297 290 290 291 293 290 289 292 292 293 288 287 284 280 272 280 279 281 284 286 296 300 303 305 306
309 309 305 304 297 299 300 301 288 280 291 288 289 292 290 293 294 296 293 289 286 282 282 287 288 291 294 289 291 289 282 273 273 272 273 283 281 282 294 297 298 299 301 304 306
306 306 305 305 299 302 299 289 280 288 287 291 291 291 290 293 292 293 291 287 291 288 283 280 280 288 293 290 285 285 283 274 271 273 276 287 281 284 296 299 299 300 300 302 302
304 298 301 306 305 300 293 282 283 286 290 289 290 288 287 291 291 290 288 288 291 290 282 282 283 293 294 294 291 287 285 290 284 282 279 280 286 293 296 295 295 295 297 297 299
295 297 301 304 302 298 290 286 287 292 292 291 284 288 283 287 287 287 287 293 292 294 292 287 282 290 293 293 294 291 293 284 282 275 274 279 283 285 289 290 292 292 292 295 297
295 296 302 301 301 293 284 285 291 294 294 290 287 286 286 286 287 285 288 293 296 294 293 289 285 285 289 286 285 287 287 289 287 284 277 275 278 291 290 290 290 290 293 294 295
291 290 300 299 290 285 285 290 296 294 294 293 291 289 288 288 285 287 287 290 296 296 292 291 287 283 284 291 293 293 289 289 282 279 284 282 282 296 290 290 292 291 292 293 295
287 290 302 297 284 285 289 293 295 294 291 291 290 291 290 285 279 288 290 296 297 295 291 292 283 278 280 284 291 288 290 291 288 288 283 280 280 294 291 290 291 290 291 293 295
290 288 292 291 289 286 285 288 290 296 293 293 290 291 287 286 287 284 287 292 297 296 302 296 282 280 278 283 288 285 288 290 287 282 282 282 283 287 290 289 290 290 291 293 293
292 289 289 285 286 286 286 289 290 290 293 290 287 289 285 280 283 284 287 290 294 299 293 288 280 283 287 289 289 288 288 288 286 286 282 284 284 287 289 289 289 291 291 291 292
289 288 289 287 288 288 289 288 290 290 288 287 285 289 287 282 284 282 284 287 288 292 290 290 286 289 286 289 288 286 289 287 286 286 286 286 284 290 291 291 290 290 290 291 291
293 293 290 288 286 285 287 289 290 290 291 291 289 286 286 288 290 290 291 293 291 289 290 290 289 287 282 285 284 284 287 285 286 288 287 282 286 290 288 289 289 290 291 291 291
Wind_Speed
20 19 19 18 17 16 17 16 16 15 13 11 9 9 10 11 10 2 3 2 1 2 5 6 2 3 3 3 1 3 3 2 4 3 9 7 11 9 9 8 7 5 11 12 27
21 20 18 17 16 15 14 14 13 11 10 10 12 11 9 8 2 2 2 2 1 4 4 6 6 6 4 3 2 4 3 4 6 4 10 19 19 22 17 23 14 16 11 13 8
21 21 19 18 17 16 15 15 13 11 7 7 9 10 7 5 4 5 4 1 3 1 2 3 1 3 4 4 2 1 4 4 8 10 10 13 13 15 16 22 8 14 20 7 5
21 21 20 19 18 17 16 15 14 12 9 6 6 5 4 3 5 5 1 1 2 2 4 5 5 4 3 3 2 4 6 6 5 8 9 14 11 16 18 11 12 13 14 7 8
21 21 20 19 18 17 15 15 15 13 10 7 6 3 1 5 2 4 3 3 0 2 3 4 4 2 1 4 3 4 4 4 9 8 10 16 15 16 26 8 11 16 13 10 9
21 22 21 19 19 18 16 12 12 12 9 6 5 3 2 9 2 1 2 2 0 1 6 6 3 4 4 4 3 6 7 10 7 11 7 11 15 10 17 7 9 12 13 10 11
21 21 22 20 19 19 18 15 13 10 7 4 3 2 1 3 3 6 3 1 0 1 2 4 1 3 2 5 6 5 6 8 6 6 9 7 10 10 8 12 8 9 11 12 10
22 22 22 22 21 20 17 16 15 7 5 5 3 3 2 3 2 6 3 5 5 2 1 6 1 1 2 4 8 5 3 5 7 12 9 3 12 8 9 14 14 9 10 13 11
23 22 22 23 23 22 21 18 10 4 6 4 1 2 2 9 4 2 2 3 2 6 7 4 4 3 6 3 6 5 7 8 8 7 9 5 14 7 12 10 14 7 8 12 11
24 23 22 22 22 22 22 10 4 6 2 2 1 5 5 4 2 3 3 5 1 4 6 8 6 4 4 6 6 8 7 7 11 9 13 12 16 9 10 9 13 13 8 10 13
25 25 23 22 21 19 11 4 8 7 7 2 3 3 6 5 0 1 3 0 3 5 1 4 5 3 7 6 8 8 6 7 14 11 7 11 12 13 11 9 9 10 11 10 13
25 26 25 24 22 16 1 5 5 6 5 2 6 5 7 3 4 3 2 2 1 4 1 6 2 3 8 8 5 7 8 8 8 8 10 15 18 16 11 11 8 9 15 12 11
24 25 25 24 24 3 2 4 4 6 3 6 3 3 4 2 3 5 4 3 3 4 6 3 5 8 7 9 5 3 6 7 11 13 9 10 14 9 12 9 15 9 11 15 10
24 23 24 26 3 3 3 7 4 1 5 3 2 2 6 5 3 4 4 1 5 4 7 2 5 8 9 2 6 5 4 10 15 6 12 4 14 27 15 17 12 10 8 11 10
24 23 19 10 2 1 1 6 3 5 3 1 2 2 8 4 4 8 6 6 3 3 5 7 5 7 4 3 5 8 12 13 10 13 6 8 5 7 6 10 11 7 6 8 10
28 22 14 2 1 6 5 4 5 6 1 2 3 5 6 6 3 6 7 7 2 2 3 10 4 2 2 4 4 11 9 8 3 3 3 5 1 7 11 7 10 14 12 12 10
30 25 6 1 3 0 2 5 6 5 3 5 4 5 0 6 4 6 4 7 4 6 5 7 6 6 3 12 8 8 7 6 8 5 6 4 6 6 12 14 14 10 12 14 13
31 17 3 5 2 4 4 6 3 1 1 0 4 4 2 5 3 7 6 2 6 2 2 5 8 3 6 7 6 4 1 4 6 4 9 9 4 4 6 9 11 10 11 15 18
22 4 2 4 5 4 6 5 7 4 3 2 5 3 4 2 2 7 4 1 1 2 3 5 7 6 9 4 2 5 3 4 6 4 5 5 5 2 12 14 18 22 21 20 20
4 4 4 5 4 6 6 4 4 4 5 3 2 2 2 3 4 5 2 1 4 3 4 2 9 6 5 3 2 4 1 3 2 5 5 6 4 4 13 17 18 21 21 20 20
4 5 3 3 5 6 3 5 4 5 6 6 6 3 5 3 2 2 4 5 3 4 2 2 4 8 6 2 2 2 3 4 4 4 4 5 6 2 9 13 16 15 18 18 17
3 4 3 3 5 1 2 1 3 4 4 3 4 5 6 5 3 4 6 7 4 5 3 5 3 6 8 11 8 4 3 4 4 3 4 4 6 4 4 7 11 14 18 17 16
3 4 5 4 2 3 5 4 4 2 5 6 6 5 3 6 1 6 4 7 7 5 5 6 2 5 10 6 3 2 4 4 7 3 5 4 5 1 10 18 17 17 16 17 15
2 4 6 6 1 5 3 5 4 3 2 4 5 1 0 4 6 5 6 5 2 6 13 9 4 7 6 11 13 9 13 7 3 4 5 9 13 12 15 21 22 19 16 17 16
1 4 3 4 3 1 3 3 4 4 2 6 3 6 6 3 3 6 6 3 4 0 4 5 5 4 12 18 17 16 18 2 3 9 6 9 13 16 15 18 20 20 18 17 18
2 1 2 3 3 2 7 5 5 1 3 5 5 6 7 8 12 10 5 5 7 4 5 4 4 5 9 14 8 13 7 2 6 7 13 11 17 11 13 14 15 18 18 21 22
2 2 4 4 2 2 5 5 4 4 5 6 6 3 6 11 11 15 12 10 7 7 6 5 3 3 5 10 11 3 6 1 8 10 5 6 5 10 12 13 15 16 14 20 22
Wind_Direction
353 352 349 345 344 344 344 345 346 348 352 346 337 326 329 331 327 76 23 244 62 309 340 297 34 34 71 29 354 111 35 276 279 320 277 324 329 307 288 264 304 284 295 278 291
351 350 348 344 342 343 343 341 340 343 347 340 332 335 335 341 320 356 269 152 278 330 10 27 10 3 34 17 360 104 106 245 215 289 307 308 302 303 305 299 293 299 302 329 132
349 349 347 344 342 341 341 338 335 337 347 330 327 335 346 341 22 351 333 97 69 109 0 320 349 63 48 23 332 44 195 274 305 296 299 306 305 301 298 287 304 300 302 313 116
348 349 346 342 338 337 336 331 328 328 331 320 328 341 359 353 73 272 32 206 50 328 353 357 22 35 30 4 299 312 270 267 289 313 317 303 297 296 286 300 295 276 273 262 217
347 347 344 340 335 330 327 323 318 315 315 309 322 353 359 45 70 294 105 146 80 344 352 352 42 16 0 286 306 210 254 280 280 282 278 282 287 274 281 307 305 298 290 263 235
345 346 344 340 334 327 318 313 304 299 295 286 300 105 46 70 277 346 156 119 264 9 7 359 311 253 260 240 172 242 260 284 290 308 275 284 291 303 294 353 347 341 321 304 251
342 344 343 340 334 326 317 319 310 297 273 249 261 217 51 94 351 337 107 240 232 229 343 288 293 55 283 301 294 278 310 325 307 288 287 294 294 291 303 318 331 315 318 325 315
343 344 343 340 334 324 322 325 315 302 206 200 213 182 97 283 258 46 324 6 358 32 150 282 231 154 88 303 360 357 34 334 274 294 281 323 291 265 309 318 317 304 313 310 297
342 344 341 340 333 326 327 324 325 131 145 160 100 36 332 320 30 228 249 98 21 345 334 357 46 79 18 50 2 2 283 288 297 287 287 236 292 286 299 295 302 285 298 302 306
341 342 340 335 331 326 327 304 304 136 124 184 84 46 326 282 287 179 271 96 45 345 0 28 41 36 32 57 297 276 295 278 282 288 295 283 277 274 276 284 288 295 296 297 301
340 340 338 333 329 329 346 22 19 349 48 157 254 230 272 269 349 288 288 34 38 47 28 347 38 331 292 248 236 263 246 259 289 280 306 281 286 284 277 279 282 284 294 285 283
338 338 337 332 328 325 107 85 194 186 330 273 247 244 250 301 295 250 65 322 319 314 1 21 257 240 278 286 283 285 301 292 281 286 285 291 288 283 271 265 243 280 296 291 284
337 336 334 331 321 12 344 291 330 98 101 300 254 258 282 33 296 353 9 313 272 315 321 208 249 326 330 324 353 280 258 285 297 299 271 269 281 279 273 256 279 253 260 282 258
334 336 333 329 36 308 331 331 343 72 71 301 308 329 0 319 97 60 333 354 331 313 339 310 309 340 326 320 11 314 279 294 298 313 288 94 291 276 282 277 261 267 291 302 313
332 333 332 338 257 74 279 347 337 53 62 24 31 313 324 59 281 346 14 356 34 355 50 272 278 314 291 287 301 254 316 287 267 276 308 309 233 298 316 283 272 335 355 331 352
329 333 334 127 329 246 340 357 54 49 154 307 15 350 10 347 41 319 52 15 37 29 326 308 291 294 245 322 312 308 316 287 354 76 355 268 53 315 335 329 9 2 355 339 357
329 330 306 212 228 279 6 61 38 108 345 328 318 347 356 345 10 2 58 27 47 13 330 314 303 302 57 340 327 0 12 336 351 2 233 324 330 246 351 5 0 346 352 351 358
327 327 192 234 52 32 52 57 116 112 44 321 310 305 79 16 345 342 8 40 34 76 304 349 329 14 330 315 263 308 223 170 281 277 294 312 238 262 15 347 336 338 349 360 1
323 328 324 280 153 91 71 64 190 197 176 314 330 10 321 46 309 10 345 177 109 27 81 325 263 290 297 354 16 326 31 303 273 273 277 248 262 304 326 343 349 354 352 353 352
333 343 285 324 127 63 74 213 195 170 150 134 153 229 305 289 13 23 305 256 170 169 155 264 290 278 316 11 1 132 157 290 300 285 277 271 255 261 339 351 349 346 341 348 348
22 19 251 357 67 49 147 223 234 215 162 162 204 213 229 283 226 251 252 288 196 202 196 184 175 291 343 226 287 359 311 254 260 233 276 308 277 203 13 347 340 337 334 339 344
12 346 290 61 49 70 147 244 277 234 199 200 152 192 199 216 283 262 228 213 245 157 259 190 236 276 270 296 283 177 243 259 266 264 247 262 268 99 24 348 338 336 333 335 337
355 269 313 79 123 327 310 298 258 248 192 174 198 207 182 187 347 211 232 261 255 191 201 181 235 306 332 1 359 320 274 246 292 261 234 267 265 21 1 348 340 334 331 332 336
22 332 319 38 82 116 12 266 266 324 204 158 203 162 215 207 217 254 236 281 244 225 253 158 183 191 239 277 296 286 289 293 250 261 309 255 303 328 348 337 331 330 328 328 330
163 250 196 289 310 63 175 253 273 273 253 173 208 207 173 235 268 233 244 255 277 329 71 124 221 198 253 269 274 272 283 265 261 282 256 306 309 327 347 327 322 318 323 329 334
238 192 348 271 294 215 177 230 210 308 224 240 205 227 175 184 199 265 240 180 223 201 150 192 250 249 274 279 278 273 245 303 274 286 277 294 294 356 320 320 317 321 320 323 327
272 310 113 251 250 149 230 203 208 341 266 220 202 196 228 232 215 227 210 239 209 187 184 179 229 270 263 335 312 233 182 172 306 293 265 278 311 317 319 321 323 315 313 321 315